EW5738 Weather Reports


Display with metric or nautical units.
time (UTC)temp
F
wind
direction
speed
MPH
gust
MPH
rain 1hr
in
rain 24hr
in
rain mn
in
humidity
%
barometer
mb
20260503004539 74 117 3.0 7.0 0.00 0.02 0.00 75 1022.0
20260503003036 74 183 4.0 10.0 0.00 0.02 0.00 77 1022.2
20260503001533 72 197 2.0 8.0 0.00 0.02 0.00 78 1022.4
20260503000031 73 192 6.0 11.0 0.00 0.02 0.00 78 1022.4
20260502234529 72 137 4.0 12.0 0.00 0.02 0.00 79 1022.5
20260502233024 71 178 2.0 11.0 0.00 0.02 0.00 80 1022.6
20260502231522 70 137 4.0 10.0 0.00 0.02 0.00 80 1022.6
20260502230023 69 122 4.0 10.0 0.00 0.02 0.00 81 1022.6
20260502224515 67 196 4.0 11.0 0.00 0.02 0.00 84 1022.6
20260502223012 67 164 6.0 13.0 0.00 0.02 0.00 84 1022.4
20260502221508 66 163 5.0 10.0 0.00 0.02 0.00 85 1022.2
20260502220005 65 161 6.0 12.0 0.00 0.02 0.00 86 1022.1
20260502214503 65 193 5.0 12.0 0.00 0.02 0.00 87 1022.0
20260502213001 64 172 5.0 12.0 0.00 0.02 0.00 88 1021.7
20260502211607 64 160 4.0 14.0 0.00 0.02 0.00 89 1021.8
20260502210057 63 178 5.0 9.0 0.00 0.02 0.00 89 1021.7
20260502204555 63 137 4.0 11.0 0.00 0.04 0.00 89 1021.5
20260502203106 63 204 4.0 10.0 0.00 0.04 0.00 89 1021.4
20260502201604 63 201 1.0 6.0 0.00 0.04 0.00 89 1021.4
20260502200049 63 199 2.0 5.0 0.00 0.04 0.00 89 1021.3
20260502194551 63 183 1.0 5.0 0.00 0.04 0.00 89 1021.0
20260502193050 63 178 2.0 5.0 0.00 0.04 0.00 89 1021.0
20260502191546 63 193 1.0 5.0 0.00 0.04 0.00 89 1021.1
20260502190045 63 173 1.0 7.0 0.00 0.04 0.00 89 1020.9
20260502184543 63 157 1.0 5.0 0.00 0.04 0.00 89 1020.9
20260502183042 63 197 1.0 4.0 0.00 0.04 0.00 89 1020.7
20260502181540 64 216 1.0 3.0 0.00 0.04 0.00 89 1020.8
20260502163032 64 269 1.0 7.0 0.00 0.16 0.00 91 1021.3
20260502161526 65 210 1.0 5.0 0.00 0.16 0.00 91 1021.3
20260502151522 65 197 3.0 7.0 0.00 0.16 0.00 92 1021.7
20260502123011 67 161 2.0 5.0 0.00 0.17 0.16 93 1022.2
20260502121503 67 162 3.0 8.0 0.00 0.17 0.16 93 1022.6
20260502120113 67 187 5.0 9.0 0.00 0.17 0.16 93 1022.6
20260502114502 67 160 4.0 7.0 0.00 0.25 0.16 93 1022.5
20260502113001 67 159 4.0 7.0 0.00 0.25 0.16 93 1022.4
20260502111601 67 127 3.0 7.0 0.02 0.25 0.16 93 1022.3
20260502110100 67 173 4.0 7.0 0.02 0.25 0.16 93 1022.5
20260502110003 67 178 3.0 7.0 0.02 0.35 0.16 93 1022.5
20260502104658 67 167 3.0 6.0 0.02 0.35 0.16 92 1022.4
20260502103102 68 216 1.0 7.0 0.02 0.35 0.16 91 1022.4
20260502101615 68 174 5.0 12.0 0.01 0.34 0.14 91 1022.4
20260502100109 68 206 2.0 4.0 0.00 0.33 0.13 91 1022.3
20260502070050 70 187 3.0 6.0 0.00 0.33 0.13 88 1020.7
20260502064612 71 194 3.0 7.0 0.00 0.33 0.13 86 1020.5
20260502063053 71 152 3.0 7.0 0.00 0.33 0.13 85 1020.4
20260502061543 72 135 2.0 9.0 0.00 0.33 0.13 84 1020.6
20260502060045 72 124 3.0 9.0 0.00 0.33 0.13 84 1020.5
20260502054540 71 185 1.0 10.0 0.00 0.33 0.13 85 1020.5
20260502053040 71 129 4.0 9.0 0.00 0.33 0.13 85 1020.5
20260502051538 73 116 4.0 16.0 0.00 0.33 0.13 79 1020.5
20260502050036 74 131 6.0 16.0 0.00 0.33 0.13 76 1020.6
20260502044534 74 131 3.0 12.0 0.00 0.33 0.13 78 1020.6
20260502043044 73 133 5.0 16.0 0.00 0.33 0.13 79 1020.4
20260502041539 74 110 5.0 17.0 0.00 0.33 0.13 79 1020.4
20260502040030 74 124 6.0 16.0 0.00 0.33 0.13 79 1020.6
20260502034532 75 149 9.0 20.0 0.00 0.33 0.13 76 1020.6
20260502033030 75 112 4.0 11.0 0.00 0.33 0.13 78 1020.7
20260502031526 73 154 5.0 15.0 0.00 0.33 0.13 81 1020.8
20260502030024 75 118 4.0 13.0 0.00 0.33 0.13 76 1020.8
20260502024526 75 115 9.0 17.0 0.00 0.33 0.13 76 1021.1
20260502023021 75 130 4.0 11.0 0.00 0.33 0.13 76 1021.2
20260502021519 77 144 9.0 20.0 0.00 0.33 0.13 73 1021.6
20260502020018 75 127 4.0 18.0 0.00 0.33 0.13 76 1021.8
20260502014517 76 126 7.0 17.0 0.00 0.33 0.13 71 1021.7
20260502013016 76 136 6.0 22.0 0.00 0.33 0.13 73 1021.8
20260502011512 75 103 7.0 19.0 0.00 0.33 0.13 76 1022.1
20260502010022 75 125 6.0 20.0 0.00 0.33 0.13 75 1022.5